TimeCDT,TemperatureF,Dew PointF,Humidity,Sea Level PressureIn,VisibilityMPH,Wind Direction,Wind SpeedMPH,Gust SpeedMPH,PrecipitationIn,Events,Conditions,WindDirDegrees,DateUTC
12:52 AM,80.1,70.0,71,29.72,10.0,South,10.4,-,N/A,,Clear,190,2013-06-26 05:52:00
1:52 AM,80.1,71.1,74,29.70,10.0,SSW,16.1,23.0,N/A,,Clear,210,2013-06-26 06:52:00
2:52 AM,80.1,71.1,74,29.70,10.0,SW,13.8,-,N/A,,Clear,220,2013-06-26 07:52:00
3:52 AM,79.0,71.1,77,29.70,10.0,WSW,5.8,-,N/A,,Clear,240,2013-06-26 08:52:00
4:52 AM,78.1,70.0,76,29.72,10.0,WSW,4.6,-,N/A,,Clear,250,2013-06-26 09:52:00
5:52 AM,75.0,70.0,84,29.74,10.0,West,4.6,-,N/A,,Clear,270,2013-06-26 10:52:00
6:52 AM,75.0,71.1,87,29.77,8.0,Calm,Calm,-,N/A,,Clear,0,2013-06-26 11:52:00
7:52 AM,80.1,71.1,74,29.79,10.0,WSW,4.6,-,N/A,,Clear,250,2013-06-26 12:52:00
8:52 AM,82.9,73.0,72,29.80,9.0,West,8.1,-,N/A,,Clear,260,2013-06-26 13:52:00
9:52 AM,88.0,73.9,63,29.80,8.0,West,9.2,-,N/A,,Clear,280,2013-06-26 14:52:00
10:52 AM,88.0,73.0,61,29.80,10.0,WNW,10.4,-,N/A,,Clear,290,2013-06-26 15:52:00
11:52 AM,91.9,73.0,54,29.81,10.0,WNW,9.2,-,N/A,,Clear,300,2013-06-26 16:52:00
12:52 PM,95.0,66.9,40,29.81,10.0,NW,9.2,-,N/A,,Clear,310,2013-06-26 17:52:00
1:52 PM,98.1,64.9,34,29.81,10.0,NNW,11.5,-,N/A,,Clear,340,2013-06-26 18:52:00
2:52 PM,99.0,63.0,30,29.81,10.0,NNW,9.2,-,N/A,,Clear,330,2013-06-26 19:52:00
3:52 PM,98.1,60.1,28,29.81,10.0,NW,12.7,-,N/A,,Clear,320,2013-06-26 20:52:00
4:52 PM,98.1,61.0,29,29.80,10.0,NW,9.2,-,N/A,,Clear,310,2013-06-26 21:52:00
5:52 PM,96.1,66.0,37,29.80,10.0,NNW,5.8,-,N/A,,Clear,330,2013-06-26 22:52:00
6:52 PM,95.0,68.0,41,29.81,10.0,NNW,4.6,-,N/A,,Clear,340,2013-06-26 23:52:00
7:52 PM,91.9,75.0,58,29.81,10.0,Calm,Calm,-,N/A,,Clear,0,2013-06-27 00:52:00
8:52 PM,80.1,73.9,81,29.83,10.0,NNE,3.5,-,N/A,,Clear,20,2013-06-27 01:52:00
9:52 PM,73.9,69.1,85,29.85,10.0,North,3.5,-,N/A,,Clear,10,2013-06-27 02:52:00
10:52 PM,73.9,68.0,82,29.87,10.0,Calm,Calm,-,N/A,,Clear,0,2013-06-27 03:52:00
11:52 PM,73.0,69.1,87,29.87,10.0,Calm,Calm,-,N/A,,Clear,0,2013-06-27 04:52:00